Regional Weather Roundup
Issued by NWS

Home | Current Version | Previous Version | Text Only | Print | Product List | Glossary Off
Versions: 1 2 3 4 5 6 7 8 9 10 11 12 13 14 15 16 17 18 19 20 21 22 23 24 25 26 27 28 29 30 31 32 33 34 35 36 37 38 39 40 41 42 43 44 45 46 47 48 49 50

000
ASUS43 KMKX 241711
RWRWI

WISCONSIN REGIONAL WEATHER ROUNDUP
NATIONAL WEATHER SERVICE MILWAUKEE/SULLIVAN WI
1200 PM CDT FRI MAR 24 2017

NOTE: "FAIR" INDICATES FEW OR NO CLOUDS BELOW 12,000 FEET WITH NO
SIGNIFICANT WEATHER AND/OR OBSTRUCTIONS TO VISIBILITY.

WIZ001-002-006>008-014>016-023>028-241800-
NORTHWEST WISCONSIN

CITY           SKY/WX    TMP DP  RH WIND       PRES   REMARKS
SUPERIOR ARPT  CLOUDY    38  34  87 NE7       30.08R WCI  32
ASHLAND        CLOUDY    38  34  85 N10       30.06R WCI  31
HAYWARD        CLOUDY    40  33  76 NE14      30.03R WCI  32
SIREN          CLOUDY    40  34  78 NE10      30.05R WCI  34
CUMBERLAND     CLOUDY    37  34  87 N10       30.02R WCI  30
RICE LAKE      CLOUDY    38  36  92 N10       30.03R WCI  31
CHETEK         CLOUDY    37  36  98 N5        30.02R FOG     WCI  33
LADYSMITH      CLOUDY    37  36  94 N8        30.03R FOG     WCI  31
EAU CLAIRE     LGT RAIN  39  38  96 N6        30.00R WCI  35
MENOMONIE      RAIN      40  37  92 N9        30.01R WCI  33
NEW RICHMOND   CLOUDY    38  37  95 N8        30.03R WCI  32
OSCEOLA        CLOUDY    41  41  99 NE8       30.06R
$$

WIZ003>005-009-010-017-018-241800-
NORTH CENTRAL WISCONSIN

CITY           SKY/WX    TMP DP  RH WIND       PRES   REMARKS
MANITOWISH WTR CLOUDY    33  33 100 N3        30.00R FOG
ARBOR VITAE    CLOUDY    37  35  96 NE5       29.99R FOG     WCI  33
WOODRUFF       CLOUDY    37  35  96 NE5       29.99R FOG     WCI  33
RHINELANDER    LGT RAIN  36  35  96 VRB3      29.99R
EAGLE RIVER    CLOUDY    33  33 100 N7        30.00R FOG     WCI  27
LAND O LAKES   FOG       33  33 100 N8        30.01R VSB 1/2 WCI  26
PHILLIPS       CLOUDY    34  34 100 N7        30.00R FOG     WCI  28
TOMAHAWK       LGT RAIN  35  34  94 NE3       29.98R
MEDFORD        DRIZZLE   36  34  94 NE5       29.97R WCI  32
MERRILL        RAIN      37  37 100 NE6       29.97R WCI  32
$$

WIZ029-030-035-036-043>047-241800-
CENTRAL WISCONSIN

CITY           SKY/WX    TMP DP  RH WIND       PRES   REMARKS
WAUSAU         LGT RAIN  37  36  96 VRB6      29.95S FOG     WCI  32
MOSINEE        LGT RAIN  36  36 100 E5        29.96R FOG     WCI  32
MARSHFIELD     LGT RAIN  37  37 100 E8        29.94R FOG     WCI  31
STEVENS POINT  DRIZZLE   35  35 100 NE7       29.97S WCI  29
WAUPACA        CLOUDY    39  37  90 N5        29.97S FOG
WAUTOMA        CLOUDY    41  37  86 NE8       29.95S
WISC RAPIDS    CLOUDY    39  38  96 NE8       29.97R FOG     WCI  33
CAMP DOUGLAS   LGT RAIN  45  39  81 N7        29.93S
$$

WIZ011>013-019>022-031-037>040-048>050-241800-
NORTHEAST WISCONSIN

CITY           SKY/WX    TMP DP  RH WIND       PRES   REMARKS
ANTIGO         LGT RAIN  35  35 100 N7        29.98R WCI  29
SHAWANO        DRIZZLE   37  35  91 CALM      29.98S
OCONTO         CLOUDY    36  35  96 N3        29.99R
STURGEON BAY   LGT RAIN  36  34  93 N8        29.99R FOG     WCI  29
GREEN BAY      CLOUDY    40  36  86 N12       29.98R WCI  33
MANITOWOC      PTSUNNY   47  39  74 N9        29.96R
APPLETON       CLOUDY    39  37  93 N13       29.94R WCI  32
CLINTONVILLE   RAIN      36  34  93 NE5       29.98R WCI  32
OSHKOSH        CLOUDY    43  36  76 N13       29.94R
$$

WIZ032>034-041-042-053>061-241800-
SOUTHWEST WISCONSIN

CITY           SKY/WX    TMP DP  RH WIND       PRES   REMARKS
LA CROSSE      LGT RAIN  42  40  92 NE10      29.91F FOG
SPARTA         DRIZZLE   41  41  98 N5        29.95R
VIROQUA        CLOUDY    45  41  86 NE6       29.91R
BOSCOBEL       PTSUNNY   56  44  64 VRB3      29.90S
PRAIRIE DU CHI PTSUNNY   51  41  68 NW7       29.88R
PLATTEVILLE    CLOUDY    66  52  59 SW15      29.87S
$$

WIZ056-057-062-063-064-067-068-241800-
SOUTH CENTRAL WISCONSIN

CITY           SKY/WX    TMP DP  RH WIND       PRES   REMARKS
REEDSBURG      MOSUNNY   49  42  76 N6        29.91S
BARABOO/DELLS  PTSUNNY   50  40  68 NE9       29.92S
LONE ROCK      PTSUNNY   57  45  64 CALM      29.89F HAZE
MINERAL POINT  CLOUDY    64  52  63 W12       29.87F
MADISON        CLOUDY    60  48  64 N7        29.89R
MIDDLETON      CLOUDY    59  50  71 N8        29.89S
WATERTOWN      CLOUDY    59  49  70 W5        29.89S
MONROE         SUNNY     68  50  52 SW17G26   29.86F
JANESVILLE     PTSUNNY   70  48  46 SW12G17   29.87F
$$

WIZ051-052-058>065-066-070>072-241800-
SOUTHEAST WISCONSIN

CITY           SKY/WX    TMP DP  RH WIND       PRES   REMARKS
MILWAUKEE      PTSUNNY   56  43  61 NE9       29.90S
WAUKESHA       MOSUNNY   63  48  59 W15       29.90S
MILWAUKEE/TIMM MOSUNNY   61  43  51 N3        29.90S
RACINE         CLOUDY    68  49  50 SW15      29.90S
KENOSHA        CLOUDY    72  51  47 SW23G33   29.88F
FOND DU LAC    CLOUDY    46  39  76 N15       29.94R
SHEBOYGAN      CLOUDY    50  42  74 N6        29.93R
WEST BEND      CLOUDY    54  45  71 W3        29.90S
JUNEAU         CLOUDY    55  46  72 CALM      29.92S
$$

LSZ147-162-241800-
LAKE SUPERIOR

STATION/POSITION TIME  TEMP    WIND        PRES    WAVE
                       AIR SEA DIR/SP/G            HT/PER
                 (UTC) (F)     (DEG/KT/KT) (MB)    (FT/S)
DEVILS ISLAND    1700   36     360/  9/  9 1019.2R
PORT WING        1630   36      40/  5/  7 1018.3R
SAXON HARBOR     1630   35        CALM     1017.6R
$$

LMZ867-665-643>646-241800-
LAKE MICHIGAN

STATION/POSITION TIME  TEMP    WIND        PRES    WAVE
                       AIR SEA DIR/SP/G            HT/PER
                 (UTC) (F)     (DEG/KT/KT) (MB)    (FT/S)
CHAMBERS ISLAND  1640   34     340/  5/  6 1015.2R
NORTHPORT PIER   1640   33     330/  4/  9 1015.2R
SISTER BAY       1650   34      20/  9/ 11   N/A
KEWAUNEE LAKESHO 1648   40     340/  6/  9 1014.5R
SHEBOYGAN LAKESH 1700   37      10/ 11/ 13 1014.2R
PORT WASHINGTON  1640   44      50/  2/  2 1013.9S
MILWAUKEE LAKESH 1650   39      70/  6/  7   N/A
KENOSHA   LAKESH 1700   53     130/  6/ 10 1011.9
$$

TC  - TEMPERATURE IN CELSIUS
VSB - VISIBILITY IN STATUTE MILES
WCI - WIND CHILL INDEX
HX  - HEAT INDEX




USA.gov is the U.S. government's official web portal to all federal, state and local government web resources and services.